Location: Franzen
(48.6167°N, 15.3833°E)
Time: 13:38:02
(UTC+00:00)

Cosmos 2237 Rocket - Pass Details

Date: 22 April 2021
Orbit: 836 x 848 km, 71.0° (Epoch: 16 May)

Event Time Altitude Azimuth Distance (km) Brightness Sun altitude
Rises 20:19:06 0° 323° (NW) 3,402 7.0 -19.6°
Reaches altitude 10° 20:21:57 10° 310° (NW) 2,461 5.8 -20.0°
Maximum altitude 20:26:23 24° 258° (WSW) 1,657 4.0 -20.4°
Enters shadow 20:30:38 11° 207° (SSW) 2,394 4.3 -20.9°
